Time,TemperatureF,DewpointF,PressureIn,WindDirection,WindDirectionDegrees,WindSpeedMPH,WindSpeedGustMPH,Humidity,HourlyPrecipIn,Conditions,Clouds,dailyrainin,SoftwareType,DateUTC
2013-06-18 00:01:00,72.5,63.4,29.97,WSW,243,2.2,4.5,73,0.04,,---,0.00,VWS V14.01,2013-06-18 04:01:00,
2013-06-18 00:02:00,72.5,63.4,29.97,WSW,252,5.8,5.8,73,0.04,,---,0.00,VWS V14.01,2013-06-18 04:02:00,
2013-06-18 00:05:00,72.3,63.2,29.97,WSW,237,4.0,4.0,73,0.04,,---,0.00,VWS V14.01,2013-06-18 04:05:00,
2013-06-18 00:06:00,72.3,63.6,29.97,SSW,204,3.1,4.0,74,0.04,,---,0.00,VWS V14.01,2013-06-18 04:06:00,
2013-06-18 00:11:00,72.1,63.8,29.97,SW,220,5.4,5.4,75,0.04,,---,0.00,VWS V14.01,2013-06-18 04:11:00,
2013-06-18 00:16:00,71.8,63.8,29.97,SW,229,5.4,7.2,76,0.04,,---,0.00,VWS V14.01,2013-06-18 04:16:00,
2013-06-18 00:21:00,71.6,64.4,29.97,SW,223,3.6,4.9,78,0.00,,---,0.00,VWS V14.01,2013-06-18 04:21:00,
2013-06-18 00:26:00,71.2,64.8,29.97,SW,218,2.2,5.4,80,0.00,,---,0.00,VWS V14.01,2013-06-18 04:26:00,
2013-06-18 00:31:00,71.2,64.8,29.97,SW,230,3.6,3.6,80,0.00,,---,0.00,VWS V14.01,2013-06-18 04:31:00,
2013-06-18 00:36:00,71.2,65.1,29.97,WSW,248,3.1,3.1,81,0.00,,---,0.00,VWS V14.01,2013-06-18 04:36:00,
2013-06-18 00:41:00,71.1,64.9,29.97,SW,219,3.6,4.9,81,0.00,,---,0.00,VWS V14.01,2013-06-18 04:41:00,
2013-06-18 00:46:00,71.1,65.3,29.97,WSW,244,4.0,6.3,82,0.00,,---,0.00,VWS V14.01,2013-06-18 04:46:00,
2013-06-18 00:51:00,71.6,65.5,29.97,SW,236,6.3,7.6,81,0.00,,---,0.00,VWS V14.01,2013-06-18 04:51:00,
2013-06-18 00:56:00,72.1,65.3,29.97,SW,223,5.8,7.6,79,0.00,,---,0.00,VWS V14.01,2013-06-18 04:56:00,
2013-06-18 01:01:00,72.0,65.1,29.97,WSW,252,3.6,7.6,79,0.00,,---,0.00,VWS V14.01,2013-06-18 05:01:00,
2013-06-18 01:06:00,72.0,65.1,29.97,WSW,247,2.7,6.3,79,0.00,,---,0.00,VWS V14.01,2013-06-18 05:06:00,
2013-06-18 01:11:00,72.1,65.3,29.97,SSW,209,2.7,3.6,79,0.00,,---,0.00,VWS V14.01,2013-06-18 05:11:00,
2013-06-18 01:16:00,72.1,65.3,29.97,SW,232,3.6,6.3,79,0.00,,---,0.00,VWS V14.01,2013-06-18 05:16:00,
2013-06-18 01:21:00,72.5,65.6,29.97,WSW,250,5.4,6.3,79,0.00,,---,0.00,VWS V14.01,2013-06-18 05:21:00,
2013-06-18 01:26:00,72.9,66.0,29.97,West,260,3.1,6.3,79,0.00,,---,0.00,VWS V14.01,2013-06-18 05:26:00,
2013-06-18 01:31:00,72.9,65.6,29.97,WSW,241,4.0,4.0,78,0.00,,---,0.00,VWS V14.01,2013-06-18 05:31:00,
2013-06-18 01:36:00,72.1,64.9,29.97,WSW,243,4.0,5.4,78,0.00,,---,0.00,VWS V14.01,2013-06-18 05:36:00,
2013-06-18 01:41:00,71.6,64.8,29.97,SSW,211,3.1,4.0,79,0.00,,---,0.00,VWS V14.01,2013-06-18 05:41:00,
2013-06-18 01:46:00,71.6,65.1,29.97,WSW,254,6.3,7.2,80,0.00,,---,0.00,VWS V14.01,2013-06-18 05:46:00,
2013-06-18 01:52:00,71.8,65.3,29.97,WSW,238,8.3,8.3,80,0.00,,---,0.00,VWS V14.01,2013-06-18 05:52:00,
2013-06-18 01:57:00,71.1,64.9,29.97,WSW,244,3.1,6.3,81,0.00,,---,0.00,VWS V14.01,2013-06-18 05:57:00,
2013-06-18 02:02:00,70.7,64.6,29.97,South,172,6.3,6.3,81,0.00,,---,0.00,VWS V14.01,2013-06-18 06:02:00,
2013-06-18 02:07:00,70.3,64.6,29.97,SW,222,8.7,8.7,82,0.00,,---,0.00,VWS V14.01,2013-06-18 06:07:00,
2013-06-18 02:12:00,70.0,64.9,29.97,WSW,255,5.8,7.6,84,0.00,,---,0.00,VWS V14.01,2013-06-18 06:12:00,
2013-06-18 02:17:00,69.8,65.1,29.97,WSW,239,3.1,3.6,85,0.00,,---,0.00,VWS V14.01,2013-06-18 06:17:00,
2013-06-18 02:22:00,69.4,65.4,29.97,West,281,5.8,8.1,87,0.00,,---,0.00,VWS V14.01,2013-06-18 06:22:00,
2013-06-18 02:27:00,69.4,65.4,29.97,SW,232,3.1,8.1,87,0.00,,---,0.00,VWS V14.01,2013-06-18 06:27:00,
2013-06-18 02:32:00,69.4,65.7,29.94,SW,223,2.7,3.1,88,0.00,,---,0.00,VWS V14.01,2013-06-18 06:32:00,
2013-06-18 02:37:00,69.3,65.6,29.94,West,262,3.1,6.3,88,0.00,,---,0.00,VWS V14.01,2013-06-18 06:37:00,
2013-06-18 02:42:00,69.1,65.4,29.94,SSE,149,3.1,6.3,88,0.00,,---,0.00,VWS V14.01,2013-06-18 06:42:00,
2013-06-18 02:47:00,69.1,65.7,29.94,SW,231,8.1,8.1,89,0.00,,---,0.00,VWS V14.01,2013-06-18 06:47:00,
2013-06-18 02:52:00,69.1,65.7,29.94,SSW,213,8.1,8.1,89,0.00,,---,0.00,VWS V14.01,2013-06-18 06:52:00,
2013-06-18 02:57:00,68.9,65.8,29.94,SW,217,5.8,8.3,90,0.00,,---,0.00,VWS V14.01,2013-06-18 06:57:00,
2013-06-18 03:02:00,69.1,66.0,29.94,SSW,210,3.1,6.3,90,0.00,,---,0.00,VWS V14.01,2013-06-18 07:02:00,
2013-06-18 03:07:00,69.3,66.2,29.94,WSW,249,6.3,6.3,90,0.00,,---,0.00,VWS V14.01,2013-06-18 07:07:00,
2013-06-18 03:12:00,69.1,66.0,29.94,SW,214,3.6,5.8,90,0.00,,---,0.00,VWS V14.01,2013-06-18 07:12:00,
2013-06-18 03:17:00,69.1,66.0,29.94,West,264,5.4,6.3,90,0.00,,---,0.00,VWS V14.01,2013-06-18 07:17:00,
2013-06-18 03:22:00,69.1,66.0,29.94,WSW,243,2.7,3.6,90,0.00,,---,0.00,VWS V14.01,2013-06-18 07:22:00,
2013-06-18 03:27:00,69.3,66.5,29.94,SW,233,5.4,6.3,91,0.00,,---,0.00,VWS V14.01,2013-06-18 07:27:00,
2013-06-18 03:32:00,69.3,66.5,29.94,SSW,210,4.0,7.6,91,0.00,,---,0.00,VWS V14.01,2013-06-18 07:32:00,
2013-06-18 03:37:00,69.1,66.3,29.94,SW,216,6.3,7.6,91,0.00,,---,0.00,VWS V14.01,2013-06-18 07:37:00,
2013-06-18 03:42:00,68.7,66.0,29.94,South,188,2.2,5.8,91,0.00,,---,0.00,VWS V14.01,2013-06-18 07:42:00,
2013-06-18 03:47:00,68.7,66.0,29.94,SW,224,8.3,8.3,91,0.00,,---,0.00,VWS V14.01,2013-06-18 07:47:00,
2013-06-18 03:52:00,68.5,65.8,29.94,WSW,241,7.2,8.3,91,0.00,,---,0.00,VWS V14.01,2013-06-18 07:52:00,
2013-06-18 03:57:00,68.5,65.8,29.94,SW,235,6.3,7.6,91,0.00,,---,0.00,VWS V14.01,2013-06-18 07:57:00,
2013-06-18 04:02:00,68.5,65.8,29.94,West,260,5.8,7.6,91,0.00,,---,0.00,VWS V14.01,2013-06-18 08:02:00,
2013-06-18 04:07:00,68.4,65.6,29.94,WSW,240,6.3,8.3,91,0.00,,---,0.00,VWS V14.01,2013-06-18 08:07:00,
2013-06-18 04:12:00,68.4,65.6,29.94,South,189,5.8,6.3,91,0.00,,---,0.00,VWS V14.01,2013-06-18 08:12:00,
2013-06-18 04:17:00,68.4,65.6,29.94,WSW,250,3.6,3.6,91,0.00,,---,0.00,VWS V14.01,2013-06-18 08:17:00,
2013-06-18 04:22:00,68.4,65.9,29.94,SSW,213,4.0,8.1,92,0.00,,---,0.00,VWS V14.01,2013-06-18 08:22:00,
2013-06-18 04:27:00,68.4,65.9,29.94,SW,231,8.7,8.7,92,0.00,,---,0.00,VWS V14.01,2013-06-18 08:27:00,
2013-06-18 04:32:00,68.2,65.8,29.91,WSW,244,7.6,7.6,92,0.00,,---,0.00,VWS V14.01,2013-06-18 08:32:00,
2013-06-18 04:37:00,68.4,65.9,29.91,West,273,6.3,6.3,92,0.00,,---,0.00,VWS V14.01,2013-06-18 08:37:00,
2013-06-18 04:42:00,68.4,65.9,29.91,South,190,2.7,4.0,92,0.00,,---,0.00,VWS V14.01,2013-06-18 08:42:00,
2013-06-18 04:47:00,68.2,65.8,29.91,WSW,244,5.4,7.6,92,0.00,,---,0.00,VWS V14.01,2013-06-18 08:47:00,
2013-06-18 04:52:00,68.0,65.6,29.91,SSW,212,6.3,7.2,92,0.00,,---,0.00,VWS V14.01,2013-06-18 08:52:00,
2013-06-18 04:57:00,68.0,65.6,29.91,SW,220,5.8,6.3,92,0.00,,---,0.00,VWS V14.01,2013-06-18 08:57:00,
2013-06-18 05:02:00,67.8,65.4,29.94,SW,220,8.3,8.3,92,0.00,,---,0.00,VWS V14.01,2013-06-18 09:02:00,
2013-06-18 05:07:00,67.8,65.4,29.94,SW,215,4.5,7.6,92,0.00,,---,0.00,VWS V14.01,2013-06-18 09:07:00,
2013-06-18 05:12:00,67.8,65.4,29.94,SSW,212,7.6,8.3,92,0.00,,---,0.00,VWS V14.01,2013-06-18 09:12:00,
2013-06-18 05:17:00,67.8,65.7,29.91,SSW,196,4.0,8.3,93,0.00,,---,0.00,VWS V14.01,2013-06-18 09:17:00,
2013-06-18 05:22:00,67.8,65.7,29.91,SSW,212,3.1,7.6,93,0.00,,---,0.00,VWS V14.01,2013-06-18 09:22:00,
2013-06-18 05:27:00,67.8,65.7,29.91,WSW,258,4.5,8.3,93,0.00,,---,0.00,VWS V14.01,2013-06-18 09:27:00,
2013-06-18 05:32:00,68.0,65.9,29.91,WSW,249,3.6,8.3,93,0.00,,---,0.00,VWS V14.01,2013-06-18 09:32:00,
2013-06-18 05:37:00,68.0,65.9,29.91,West,261,5.8,6.3,93,0.00,,---,0.00,VWS V14.01,2013-06-18 09:37:00,
2013-06-18 05:42:00,68.0,65.9,29.91,SW,220,5.8,7.2,93,0.00,,---,0.00,VWS V14.01,2013-06-18 09:42:00,
2013-06-18 05:47:00,68.2,66.1,29.94,SW,225,3.1,5.4,93,0.00,,---,0.00,VWS V14.01,2013-06-18 09:47:00,
2013-06-18 05:52:00,68.2,66.1,29.94,WSW,245,5.8,5.8,93,0.00,,---,0.00,VWS V14.01,2013-06-18 09:52:00,
2013-06-18 05:57:00,68.4,66.3,29.94,WSW,240,4.9,6.3,93,0.00,,---,0.00,VWS V14.01,2013-06-18 09:57:00,
2013-06-18 06:02:00,68.4,66.3,29.91,SW,219,4.0,5.8,93,0.00,,---,0.00,VWS V14.01,2013-06-18 10:02:00,
2013-06-18 06:07:00,68.4,66.3,29.91,WSW,247,4.0,6.3,93,0.00,,---,0.00,VWS V14.01,2013-06-18 10:07:00,
2013-06-18 06:12:00,68.4,66.3,29.91,SSW,205,4.0,6.3,93,0.00,,---,0.00,VWS V14.01,2013-06-18 10:12:00,
2013-06-18 06:17:00,68.4,66.3,29.94,SSW,212,5.8,5.8,93,0.00,,---,0.00,VWS V14.01,2013-06-18 10:17:00,
2013-06-18 06:22:00,68.5,66.4,29.94,WSW,248,4.0,4.9,93,0.00,,---,0.00,VWS V14.01,2013-06-18 10:22:00,
2013-06-18 06:27:00,68.5,66.4,29.94,WSW,246,4.0,4.0,93,0.00,,---,0.00,VWS V14.01,2013-06-18 10:27:00,
2013-06-18 06:32:00,68.7,66.6,29.94,SW,229,4.0,8.1,93,0.00,,---,0.00,VWS V14.01,2013-06-18 10:32:00,
2013-06-18 06:37:00,68.5,66.1,29.94,SSW,213,5.8,8.1,92,0.00,,---,0.00,VWS V14.01,2013-06-18 10:37:00,
2013-06-18 06:42:00,68.5,66.1,29.94,SSW,204,4.9,6.3,92,0.00,,---,0.00,VWS V14.01,2013-06-18 10:42:00,
2013-06-18 06:47:00,68.5,66.1,29.94,SSW,211,7.6,7.6,92,0.00,,---,0.00,VWS V14.01,2013-06-18 10:47:00,
2013-06-18 06:52:00,68.5,66.1,29.94,SW,217,5.8,8.3,92,0.00,,---,0.00,VWS V14.01,2013-06-18 10:52:00,
2013-06-18 06:57:00,68.5,66.1,29.94,SW,230,5.4,6.3,92,0.00,,---,0.00,VWS V14.01,2013-06-18 10:57:00,
2013-06-18 07:02:00,68.5,66.1,29.94,WSW,244,5.4,5.8,92,0.00,,---,0.00,VWS V14.01,2013-06-18 11:02:00,
2013-06-18 07:07:00,68.5,66.1,29.94,West,261,3.6,6.3,92,0.00,,---,0.00,VWS V14.01,2013-06-18 11:07:00,
2013-06-18 07:12:00,68.7,66.3,29.94,SW,216,3.6,7.6,92,0.00,,---,0.00,VWS V14.01,2013-06-18 11:12:00,
2013-06-18 07:17:00,68.7,66.3,29.94,SW,233,7.6,7.6,92,0.00,,---,0.00,VWS V14.01,2013-06-18 11:17:00,
2013-06-18 07:22:00,68.5,65.8,29.94,SSW,207,4.9,8.7,91,0.00,,---,0.00,VWS V14.01,2013-06-18 11:22:00,
2013-06-18 07:27:00,68.5,65.8,29.94,SW,227,8.3,8.3,91,0.00,,---,0.00,VWS V14.01,2013-06-18 11:27:00,
2013-06-18 07:32:00,68.5,65.8,29.94,SW,232,6.7,6.7,91,0.00,,---,0.00,VWS V14.01,2013-06-18 11:32:00,
2013-06-18 07:37:00,68.5,65.8,29.94,SW,224,5.4,8.1,91,0.00,,---,0.00,VWS V14.01,2013-06-18 11:37:00,
2013-06-18 07:42:00,68.5,65.8,29.94,SSW,198,9.6,9.6,91,0.00,,---,0.00,VWS V14.01,2013-06-18 11:42:00,
2013-06-18 07:47:00,68.5,65.8,29.94,SSW,210,6.3,9.2,91,0.00,,---,0.00,VWS V14.01,2013-06-18 11:47:00,
2013-06-18 07:52:00,68.7,66.0,29.94,SW,214,5.8,8.1,91,0.00,,---,0.00,VWS V14.01,2013-06-18 11:52:00,
2013-06-18 07:57:00,68.7,66.0,29.94,SSW,208,7.2,8.7,91,0.00,,---,0.00,VWS V14.01,2013-06-18 11:57:00,
2013-06-18 08:02:00,68.7,66.0,29.94,South,187,5.4,8.3,91,0.00,,---,0.00,VWS V14.01,2013-06-18 12:02:00,
2013-06-18 08:07:00,68.9,66.2,29.94,SW,233,8.7,8.7,91,0.00,,---,0.00,VWS V14.01,2013-06-18 12:07:00,
2013-06-18 08:12:00,68.9,66.2,29.94,SSW,204,4.0,8.3,91,0.00,,---,0.00,VWS V14.01,2013-06-18 12:12:00,
2013-06-18 08:17:00,69.1,66.3,29.94,SW,228,4.0,8.3,91,0.00,,---,0.00,VWS V14.01,2013-06-18 12:17:00,
2013-06-18 08:22:00,69.3,66.5,29.94,West,271,5.4,5.4,91,0.00,,---,0.00,VWS V14.01,2013-06-18 12:22:00,
2013-06-18 08:27:00,69.6,66.9,29.94,WSW,252,3.1,4.0,91,0.00,,---,0.00,VWS V14.01,2013-06-18 12:27:00,
2013-06-18 08:32:00,70.0,67.2,29.94,WSW,240,3.1,4.9,91,0.00,,---,0.00,VWS V14.01,2013-06-18 12:32:00,
2013-06-18 08:37:00,70.0,67.2,29.94,West,261,8.7,8.7,91,0.00,,---,0.00,VWS V14.01,2013-06-18 12:37:00,
2013-06-18 08:42:00,70.0,66.9,29.94,West,260,4.0,6.3,90,0.00,,---,0.00,VWS V14.01,2013-06-18 12:42:00,
2013-06-18 08:47:00,70.2,67.1,29.94,WSW,242,6.3,8.1,90,0.00,,---,0.00,VWS V14.01,2013-06-18 12:47:00,
2013-06-18 08:52:00,70.3,67.3,29.94,SW,217,5.8,6.7,90,0.00,,---,0.00,VWS V14.01,2013-06-18 12:52:00,
2013-06-18 08:57:00,70.5,67.4,29.94,SW,220,6.3,6.3,90,0.00,,---,0.00,VWS V14.01,2013-06-18 12:57:00,
2013-06-18 09:02:00,70.3,67.3,29.94,South,174,4.9,8.7,90,0.00,,---,0.00,VWS V14.01,2013-06-18 13:02:00,
2013-06-18 09:07:00,70.3,66.9,29.94,SW,216,2.7,5.4,89,0.00,,---,0.00,VWS V14.01,2013-06-18 13:07:00,
2013-06-18 09:12:00,70.7,67.3,29.94,SSW,212,8.7,8.7,89,0.00,,---,0.00,VWS V14.01,2013-06-18 13:12:00,
2013-06-18 09:17:00,70.9,67.2,29.94,WSW,248,6.3,8.3,88,0.00,,---,0.00,VWS V14.01,2013-06-18 13:17:00,
2013-06-18 09:22:00,71.4,67.7,29.94,West,259,3.6,4.0,88,0.00,,---,0.00,VWS V14.01,2013-06-18 13:22:00,
2013-06-18 09:28:00,71.6,67.5,29.94,SW,216,6.3,7.2,87,0.00,,---,0.00,VWS V14.01,2013-06-18 13:28:00,
2013-06-18 09:33:00,71.8,67.4,29.94,SSE,160,8.1,8.1,86,0.00,,---,0.00,VWS V14.01,2013-06-18 13:33:00,
2013-06-18 09:38:00,71.8,67.0,29.94,SW,225,4.0,11.0,85,0.00,,---,0.00,VWS V14.01,2013-06-18 13:38:00,
2013-06-18 09:43:00,72.1,67.0,29.94,SSW,194,6.3,6.3,84,0.00,,---,0.00,VWS V14.01,2013-06-18 13:43:00,
2013-06-18 09:48:00,72.0,66.2,29.94,WSW,246,3.1,7.6,82,0.00,,---,0.00,VWS V14.01,2013-06-18 13:48:00,
2013-06-18 09:53:00,72.5,66.7,29.94,SSW,205,5.4,8.1,82,0.00,,---,0.00,VWS V14.01,2013-06-18 13:53:00,
2013-06-18 09:58:00,72.3,66.2,29.94,South,180,6.3,6.3,81,0.00,,---,0.00,VWS V14.01,2013-06-18 13:58:00,
2013-06-18 10:03:00,72.7,66.9,29.94,South,179,3.1,5.8,82,0.00,,---,0.00,VWS V14.01,2013-06-18 14:03:00,
2013-06-18 10:08:00,72.7,66.5,29.94,West,278,4.0,4.0,81,0.00,,---,0.00,VWS V14.01,2013-06-18 14:08:00,
2013-06-18 10:13:00,72.5,66.3,29.94,SW,216,3.1,6.7,81,0.00,,---,0.00,VWS V14.01,2013-06-18 14:13:00,
2013-06-18 10:18:00,72.3,66.2,29.94,SW,215,4.0,10.1,81,0.00,,---,0.00,VWS V14.01,2013-06-18 14:18:00,
2013-06-18 10:23:00,72.1,66.3,29.94,SSW,192,5.8,5.8,82,0.00,,---,0.00,VWS V14.01,2013-06-18 14:23:00,
2013-06-18 10:28:00,72.3,66.5,29.94,South,181,5.4,6.3,82,0.00,,---,0.00,VWS V14.01,2013-06-18 14:28:00,
2013-06-18 10:33:00,72.1,66.0,29.94,SSW,197,3.6,5.8,81,0.00,,---,0.00,VWS V14.01,2013-06-18 14:33:00,
2013-06-18 10:38:00,72.3,66.2,29.94,South,191,3.6,6.3,81,0.00,,---,0.00,VWS V14.01,2013-06-18 14:38:00,
2013-06-18 10:43:00,72.5,66.3,29.94,SSE,160,2.7,6.3,81,0.00,,---,0.00,VWS V14.01,2013-06-18 14:43:00,
2013-06-18 10:48:00,73.0,66.9,29.94,SSW,209,3.6,5.8,81,0.00,,---,0.00,VWS V14.01,2013-06-18 14:48:00,
2013-06-18 10:53:00,73.4,66.5,29.94,SSW,195,3.1,7.6,79,0.00,,---,0.00,VWS V14.01,2013-06-18 14:53:00,
2013-06-18 10:58:00,73.0,66.5,29.94,SSW,207,5.4,5.8,80,0.00,,---,0.00,VWS V14.01,2013-06-18 14:58:00,
2013-06-18 11:03:00,72.9,66.3,29.94,SSW,193,7.6,7.6,80,0.00,,---,0.00,VWS V14.01,2013-06-18 15:03:00,
2013-06-18 11:08:00,72.9,66.3,29.94,SW,226,6.7,6.7,80,0.00,,---,0.00,VWS V14.01,2013-06-18 15:08:00,
2013-06-18 11:13:00,72.3,65.8,29.94,South,186,7.6,7.6,80,0.00,,---,0.00,VWS V14.01,2013-06-18 15:13:00,
2013-06-18 11:18:00,72.1,66.0,29.94,SSW,207,7.2,7.6,81,0.00,,---,0.00,VWS V14.01,2013-06-18 15:18:00,
2013-06-18 11:23:00,72.0,65.8,29.94,SW,215,4.9,7.6,81,0.00,,---,0.00,VWS V14.01,2013-06-18 15:23:00,
2013-06-18 11:28:00,72.5,66.7,29.94,West,264,4.5,4.9,82,0.00,,---,0.00,VWS V14.01,2013-06-18 15:28:00,
2013-06-18 11:33:00,72.9,66.7,29.91,SSW,192,4.9,5.4,81,0.00,,---,0.00,VWS V14.01,2013-06-18 15:33:00,
2013-06-18 11:38:00,72.3,66.2,29.91,SSW,194,4.9,5.8,81,0.00,,---,0.00,VWS V14.01,2013-06-18 15:38:00,
2013-06-18 11:43:00,72.1,66.0,29.91,South,191,4.0,5.8,81,0.00,,---,0.00,VWS V14.01,2013-06-18 15:43:00,
2013-06-18 11:48:00,72.3,66.2,29.91,SSW,206,5.4,6.3,81,0.00,,---,0.00,VWS V14.01,2013-06-18 15:48:00,
2013-06-18 11:53:00,72.3,66.2,29.91,South,173,4.0,6.3,81,0.00,,---,0.00,VWS V14.01,2013-06-18 15:53:00,
2013-06-18 11:58:00,72.7,66.9,29.91,WSW,255,5.4,6.7,82,0.00,,---,0.00,VWS V14.01,2013-06-18 15:58:00,
2013-06-18 12:03:00,72.3,66.2,29.91,SW,228,5.8,7.6,81,0.00,,---,0.00,VWS V14.01,2013-06-18 16:03:00,
2013-06-18 12:08:00,72.5,66.7,29.91,SSW,211,3.1,6.3,82,0.00,,---,0.00,VWS V14.01,2013-06-18 16:08:00,
2013-06-18 12:13:00,72.5,66.3,29.91,SW,223,6.7,8.7,81,0.00,,---,0.00,VWS V14.01,2013-06-18 16:13:00,
2013-06-18 12:18:00,72.0,65.8,29.91,South,177,4.0,5.8,81,0.00,,---,0.00,VWS V14.01,2013-06-18 16:18:00,
2013-06-18 12:23:00,71.8,66.0,29.91,SSW,211,4.5,4.9,82,0.00,,---,0.00,VWS V14.01,2013-06-18 16:23:00,
2013-06-18 12:28:00,72.0,66.2,29.91,SSW,211,6.3,6.3,82,0.00,,---,0.00,VWS V14.01,2013-06-18 16:28:00,
2013-06-18 12:33:00,71.8,66.3,29.91,SSW,205,7.6,7.6,83,0.00,,---,0.00,VWS V14.01,2013-06-18 16:33:00,
2013-06-18 12:38:00,71.6,66.2,29.91,SSW,200,5.8,6.3,83,0.00,,---,0.00,VWS V14.01,2013-06-18 16:38:00,
2013-06-18 12:43:00,71.6,66.2,29.91,South,182,5.8,6.3,83,0.00,,---,0.00,VWS V14.01,2013-06-18 16:43:00,
2013-06-18 12:48:00,71.4,66.3,29.91,South,178,5.8,7.6,84,0.00,,---,0.00,VWS V14.01,2013-06-18 16:48:00,
2013-06-18 12:53:00,71.8,66.7,29.91,SW,222,4.0,5.8,84,0.00,,---,0.00,VWS V14.01,2013-06-18 16:53:00,
2013-06-18 12:58:00,71.8,66.3,29.88,South,177,5.8,7.6,83,0.00,,---,0.00,VWS V14.01,2013-06-18 16:58:00,
2013-06-18 13:03:00,71.8,66.3,29.88,SW,217,5.4,8.1,83,0.00,,---,0.00,VWS V14.01,2013-06-18 17:03:00,
2013-06-18 13:08:00,71.6,66.2,29.88,SSW,193,7.6,7.6,83,0.00,,---,0.00,VWS V14.01,2013-06-18 17:08:00,
2013-06-18 13:13:00,71.2,66.2,29.88,South,182,5.4,8.7,84,0.00,,---,0.00,VWS V14.01,2013-06-18 17:13:00,
2013-06-18 13:18:00,71.1,66.3,29.88,SSW,211,8.3,8.3,85,0.00,,---,0.00,VWS V14.01,2013-06-18 17:18:00,
2013-06-18 13:23:00,70.9,66.5,29.88,SW,223,8.7,8.7,86,0.00,,---,0.00,VWS V14.01,2013-06-18 17:23:00,
2013-06-18 13:28:00,70.7,66.3,29.88,SSW,201,8.1,8.1,86,0.00,,---,0.00,VWS V14.01,2013-06-18 17:28:00,
2013-06-18 13:33:00,70.5,66.5,29.88,SSW,197,6.7,10.1,87,0.00,,---,0.00,VWS V14.01,2013-06-18 17:33:00,
2013-06-18 13:38:00,70.5,66.5,29.88,South,188,8.7,8.7,87,0.00,,---,0.00,VWS V14.01,2013-06-18 17:38:00,
2013-06-18 13:43:00,70.5,66.5,29.88,SSW,208,10.5,10.5,87,0.00,,---,0.00,VWS V14.01,2013-06-18 17:43:00,
2013-06-18 13:48:00,70.7,66.7,29.88,SSW,212,4.0,9.6,87,0.00,,---,0.00,VWS V14.01,2013-06-18 17:48:00,
2013-06-18 13:53:00,70.5,66.5,29.88,SSW,206,8.1,8.7,87,0.00,,---,0.00,VWS V14.01,2013-06-18 17:53:00,
2013-06-18 13:58:00,70.5,66.5,29.88,SSW,195,7.2,8.7,87,0.00,,---,0.00,VWS V14.01,2013-06-18 17:58:00,
2013-06-18 14:03:00,70.5,66.5,29.85,SSW,206,5.8,11.0,87,0.00,,---,0.00,VWS V14.01,2013-06-18 18:03:00,
2013-06-18 14:08:00,70.5,66.8,29.85,SSW,204,8.7,8.7,88,0.00,,---,0.00,VWS V14.01,2013-06-18 18:08:00,
2013-06-18 14:13:00,70.3,66.6,29.85,SSW,195,8.3,8.3,88,0.00,,---,0.00,VWS V14.01,2013-06-18 18:13:00,
2013-06-18 14:18:00,70.5,66.8,29.85,South,189,5.8,7.6,88,0.00,,---,0.00,VWS V14.01,2013-06-18 18:18:00,
2013-06-18 14:23:00,70.5,67.1,29.85,SSW,208,5.8,6.7,89,0.00,,---,0.00,VWS V14.01,2013-06-18 18:23:00,
2013-06-18 14:28:00,70.2,66.8,29.85,SSW,196,5.8,6.3,89,0.00,,---,0.00,VWS V14.01,2013-06-18 18:28:00,
2013-06-18 14:33:00,70.0,66.9,29.85,SSW,206,8.1,8.1,90,0.00,,---,0.00,VWS V14.01,2013-06-18 18:33:00,
2013-06-18 14:38:00,69.8,66.7,29.85,SSW,206,7.2,7.6,90,0.00,,---,0.00,VWS V14.01,2013-06-18 18:38:00,
2013-06-18 14:43:00,69.4,66.7,29.85,SSW,205,8.1,10.1,91,0.00,,---,0.00,VWS V14.01,2013-06-18 18:43:00,
2013-06-18 14:48:00,69.3,66.5,29.85,SW,214,5.4,8.1,91,0.00,,---,0.00,VWS V14.01,2013-06-18 18:48:00,
2013-06-18 14:53:00,69.3,66.8,29.85,SSW,204,4.9,6.3,92,0.00,,---,0.00,VWS V14.01,2013-06-18 18:53:00,
2013-06-18 14:58:00,69.1,66.7,29.85,SSW,209,4.0,6.3,92,0.00,,---,0.00,VWS V14.01,2013-06-18 18:58:00,
2013-06-18 15:03:00,68.9,66.5,29.85,WSW,256,5.8,8.3,92,0.00,,---,0.00,VWS V14.01,2013-06-18 19:03:00,
2013-06-18 15:08:00,68.9,66.8,29.85,SW,224,8.7,8.7,93,0.00,,---,0.00,VWS V14.01,2013-06-18 19:08:00,
2013-06-18 15:13:00,68.9,66.8,29.85,SW,215,5.4,6.3,93,0.00,,---,0.00,VWS V14.01,2013-06-18 19:13:00,
2013-06-18 15:18:00,68.9,67.1,29.85,West,260,8.7,8.7,94,0.00,,---,0.00,VWS V14.01,2013-06-18 19:18:00,
2013-06-18 15:23:00,69.1,67.3,29.85,SW,233,5.8,8.3,94,0.00,,---,0.00,VWS V14.01,2013-06-18 19:23:00,
2013-06-18 15:28:00,68.9,67.1,29.85,WSW,254,8.7,8.7,94,0.00,,---,0.00,VWS V14.01,2013-06-18 19:28:00,
2013-06-18 15:33:00,68.9,67.4,29.85,WNW,283,8.1,8.3,95,0.00,,---,0.00,VWS V14.01,2013-06-18 19:33:00,
2013-06-18 15:38:00,69.3,67.8,29.85,WNW,290,10.5,10.5,95,0.00,,---,0.00,VWS V14.01,2013-06-18 19:38:00,
2013-06-18 15:43:00,69.6,68.4,29.88,NW,316,8.1,10.5,96,0.00,,---,0.00,VWS V14.01,2013-06-18 19:43:00,
2013-06-18 15:48:00,68.9,67.7,29.88,West,260,10.1,10.1,96,0.00,,---,0.00,VWS V14.01,2013-06-18 19:48:00,
2013-06-18 15:53:00,68.5,67.4,29.88,NW,307,5.4,8.7,96,0.00,,---,0.00,VWS V14.01,2013-06-18 19:53:00,
2013-06-18 15:58:00,68.5,67.1,29.88,NNW,327,8.3,8.3,95,0.00,,---,0.00,VWS V14.01,2013-06-18 19:58:00,
2013-06-18 16:03:00,68.2,66.7,29.88,ENE,78,10.5,12.8,95,0.00,,---,0.00,VWS V14.01,2013-06-18 20:03:00,
2013-06-18 16:08:00,68.0,66.2,29.88,NNW,331,6.3,10.1,94,0.00,,---,0.00,VWS V14.01,2013-06-18 20:08:00,
2013-06-18 16:13:00,68.0,66.2,29.88,North,353,11.0,11.0,94,0.00,,---,0.00,VWS V14.01,2013-06-18 20:13:00,
2013-06-18 16:18:00,67.8,66.0,29.88,NNE,15,6.3,10.1,94,0.00,,---,0.00,VWS V14.01,2013-06-18 20:18:00,
2013-06-18 16:23:00,67.8,66.0,29.88,NNE,29,5.8,5.8,94,0.00,,---,0.00,VWS V14.01,2013-06-18 20:23:00,
2013-06-18 16:28:00,67.8,66.0,29.88,NE,34,3.6,7.6,94,0.00,,---,0.00,VWS V14.01,2013-06-18 20:28:00,
2013-06-18 16:33:00,68.0,65.9,29.88,NE,36,8.3,10.5,93,0.00,,---,0.00,VWS V14.01,2013-06-18 20:33:00,
2013-06-18 16:38:00,68.0,65.9,29.88,NE,35,6.3,8.3,93,0.00,,---,0.00,VWS V14.01,2013-06-18 20:38:00,
2013-06-18 16:43:00,67.8,65.7,29.88,NNE,13,13.2,13.2,93,0.00,,---,0.00,VWS V14.01,2013-06-18 20:43:00,
2013-06-18 16:48:00,67.8,65.7,29.88,NNE,13,8.7,8.7,93,0.00,,---,0.00,VWS V14.01,2013-06-18 20:48:00,
2013-06-18 16:53:00,67.8,65.7,29.88,North,8,7.2,8.1,93,0.00,,---,0.00,VWS V14.01,2013-06-18 20:53:00,
2013-06-18 16:58:00,67.8,65.7,29.88,NE,47,5.4,10.1,93,0.00,,---,0.00,VWS V14.01,2013-06-18 20:58:00,
2013-06-18 17:03:00,67.8,65.4,29.88,NNE,17,4.0,13.2,92,0.00,,---,0.00,VWS V14.01,2013-06-18 21:03:00,
2013-06-18 17:08:00,67.6,65.2,29.88,ENE,60,5.8,8.7,92,0.00,,---,0.00,VWS V14.01,2013-06-18 21:08:00,
2013-06-18 17:13:00,67.6,65.2,29.88,NE,40,7.6,7.6,92,0.00,,---,0.00,VWS V14.01,2013-06-18 21:13:00,
2013-06-18 17:18:00,67.6,65.2,29.88,NE,54,8.7,8.7,92,0.00,,---,0.00,VWS V14.01,2013-06-18 21:18:00,
2013-06-18 17:23:00,67.6,65.2,29.88,NE,38,10.5,10.5,92,0.00,,---,0.00,VWS V14.01,2013-06-18 21:23:00,
2013-06-18 17:29:00,67.5,65.1,29.88,NE,36,8.1,12.3,92,0.00,,---,0.00,VWS V14.01,2013-06-18 21:29:00,
2013-06-18 17:34:00,67.3,64.9,29.88,NE,36,10.5,12.8,92,0.00,,---,0.00,VWS V14.01,2013-06-18 21:34:00,
2013-06-18 17:39:00,67.1,64.7,29.88,NE,51,6.3,10.1,92,0.00,,---,0.00,VWS V14.01,2013-06-18 21:39:00,
2013-06-18 17:44:00,66.9,64.5,29.88,NNE,26,10.1,11.4,92,0.00,,---,0.00,VWS V14.01,2013-06-18 21:44:00,
2013-06-18 17:49:00,66.7,64.3,29.88,NE,46,10.1,11.9,92,0.00,,---,0.00,VWS V14.01,2013-06-18 21:49:00,
2013-06-18 17:54:00,66.6,64.2,29.88,ENE,57,7.2,10.1,92,0.00,,---,0.00,VWS V14.01,2013-06-18 21:54:00,
2013-06-18 17:59:00,66.6,64.2,29.85,NE,41,4.0,8.7,92,0.00,,---,0.00,VWS V14.01,2013-06-18 21:59:00,
2013-06-18 18:04:00,66.6,64.2,29.85,NE,44,9.6,9.6,92,0.00,,---,0.00,VWS V14.01,2013-06-18 22:04:00,
2013-06-18 18:09:00,66.4,64.0,29.85,ENE,66,7.6,7.6,92,0.00,,---,0.00,VWS V14.01,2013-06-18 22:09:00,
2013-06-18 18:14:00,66.4,64.0,29.85,NE,56,7.6,8.3,92,0.00,,---,0.00,VWS V14.01,2013-06-18 22:14:00,
2013-06-18 18:19:00,66.4,64.0,29.85,East,84,5.4,7.2,92,0.00,,---,0.00,VWS V14.01,2013-06-18 22:19:00,
2013-06-18 18:24:00,66.4,64.0,29.85,NNE,33,6.3,9.2,92,0.00,,---,0.00,VWS V14.01,2013-06-18 22:24:00,
2013-06-18 18:29:00,66.4,64.0,29.85,NNE,30,6.3,8.1,92,0.00,,---,0.00,VWS V14.01,2013-06-18 22:29:00,
2013-06-18 18:34:00,66.4,64.0,29.85,NE,38,4.0,9.2,92,0.00,,---,0.00,VWS V14.01,2013-06-18 22:34:00,
2013-06-18 18:39:00,66.4,64.0,29.85,NE,54,8.3,8.7,92,0.00,,---,0.00,VWS V14.01,2013-06-18 22:39:00,
2013-06-18 18:44:00,66.6,64.2,29.85,NE,44,2.2,4.0,92,0.00,,---,0.00,VWS V14.01,2013-06-18 22:44:00,
2013-06-18 18:49:00,66.6,64.2,29.85,East,86,4.9,9.6,92,0.00,,---,0.00,VWS V14.01,2013-06-18 22:49:00,
2013-06-18 18:54:00,66.6,64.2,29.85,ENE,75,7.6,8.1,92,0.00,,---,0.00,VWS V14.01,2013-06-18 22:54:00,
2013-06-18 18:59:00,66.6,64.2,29.85,East,87,5.8,8.7,92,0.00,,---,0.00,VWS V14.01,2013-06-18 22:59:00,
2013-06-18 19:04:00,66.6,64.2,29.85,ENE,77,5.4,8.3,92,0.00,,---,0.00,VWS V14.01,2013-06-18 23:04:00,
2013-06-18 19:09:00,66.6,64.2,29.85,ENE,63,8.3,10.5,92,0.00,,---,0.00,VWS V14.01,2013-06-18 23:09:00,
2013-06-18 19:14:00,66.6,64.2,29.85,East,82,8.7,10.5,92,0.00,,---,0.00,VWS V14.01,2013-06-18 23:14:00,
2013-06-18 19:19:00,66.4,64.0,29.85,ENE,59,8.3,9.2,92,0.00,,---,0.00,VWS V14.01,2013-06-18 23:19:00,
2013-06-18 19:24:00,66.6,64.2,29.85,ENE,76,8.3,9.2,92,0.00,,---,0.00,VWS V14.01,2013-06-18 23:24:00,
2013-06-18 19:29:00,66.6,64.2,29.85,NE,45,3.1,5.4,92,0.00,,---,0.00,VWS V14.01,2013-06-18 23:29:00,
2013-06-18 19:34:00,66.6,64.2,29.85,ENE,69,7.6,8.3,92,0.00,,---,0.00,VWS V14.01,2013-06-18 23:34:00,
2013-06-18 19:39:00,66.6,64.2,29.85,East,83,8.1,8.7,92,0.00,,---,0.00,VWS V14.01,2013-06-18 23:39:00,
2013-06-18 19:44:00,66.6,64.2,29.85,ENE,78,6.3,7.6,92,0.00,,---,0.00,VWS V14.01,2013-06-18 23:44:00,
2013-06-18 19:49:00,66.6,64.2,29.85,ENE,67,5.4,10.1,92,0.00,,---,0.00,VWS V14.01,2013-06-18 23:49:00,
2013-06-18 19:54:00,66.6,64.2,29.85,NE,43,9.2,10.1,92,0.00,,---,0.00,VWS V14.01,2013-06-18 23:54:00,
2013-06-18 19:59:00,66.4,64.0,29.83,ENE,72,2.7,5.8,92,0.00,,---,0.00,VWS V14.01,2013-06-18 23:59:00,
2013-06-18 20:04:00,66.4,64.0,29.83,ENE,59,8.3,8.3,92,0.00,,---,0.00,VWS V14.01,2013-06-19 00:04:00,
2013-06-18 20:09:00,66.4,64.0,29.83,ENE,78,5.8,8.3,92,0.00,,---,0.00,VWS V14.01,2013-06-19 00:09:00,
2013-06-18 20:14:00,66.2,63.8,29.85,East,83,6.3,6.3,92,0.00,,---,0.00,VWS V14.01,2013-06-19 00:14:00,
2013-06-18 20:19:00,66.2,63.8,29.85,East,79,8.3,9.6,92,0.00,,---,0.00,VWS V14.01,2013-06-19 00:19:00,
2013-06-18 20:24:00,66.0,63.6,29.85,ENE,64,6.3,8.3,92,0.00,,---,0.00,VWS V14.01,2013-06-19 00:24:00,
2013-06-18 20:29:00,66.0,63.6,29.85,NE,44,8.7,8.7,92,0.00,,---,0.00,VWS V14.01,2013-06-19 00:29:00,
2013-06-18 20:34:00,66.0,63.6,29.85,ENE,76,11.0,11.0,92,0.00,,---,0.00,VWS V14.01,2013-06-19 00:34:00,
2013-06-18 20:39:00,66.0,63.3,29.85,ENE,70,6.3,11.0,91,0.00,,---,0.00,VWS V14.01,2013-06-19 00:39:00,
2013-06-18 20:44:00,66.0,63.3,29.85,East,83,5.8,11.0,91,0.00,,---,0.00,VWS V14.01,2013-06-19 00:44:00,
2013-06-18 20:49:00,66.0,63.3,29.85,ENE,58,8.1,8.7,91,0.00,,---,0.00,VWS V14.01,2013-06-19 00:49:00,
2013-06-18 20:54:00,66.0,63.3,29.85,East,85,8.1,8.7,91,0.00,,---,0.00,VWS V14.01,2013-06-19 00:54:00,
2013-06-18 20:59:00,66.0,63.3,29.85,East,79,4.9,6.3,91,0.00,,---,0.00,VWS V14.01,2013-06-19 00:59:00,
2013-06-18 21:04:00,66.0,63.3,29.85,East,92,9.6,10.1,91,0.00,,---,0.00,VWS V14.01,2013-06-19 01:04:00,
2013-06-18 21:09:00,65.8,63.1,29.85,ENE,65,8.3,9.6,91,0.00,,---,0.00,VWS V14.01,2013-06-19 01:09:00,
2013-06-18 21:14:00,65.8,63.1,29.85,NE,45,3.6,9.2,91,0.00,,---,0.00,VWS V14.01,2013-06-19 01:14:00,
2013-06-18 21:19:00,65.8,63.1,29.85,ENE,77,7.6,10.1,91,0.00,,---,0.00,VWS V14.01,2013-06-19 01:19:00,
2013-06-18 21:24:00,65.8,63.1,29.85,ENE,70,8.1,8.7,91,0.00,,---,0.00,VWS V14.01,2013-06-19 01:24:00,
2013-06-18 21:29:00,65.8,63.1,29.85,East,89,11.9,11.9,91,0.00,,---,0.00,VWS V14.01,2013-06-19 01:29:00,
2013-06-18 21:34:00,65.8,63.1,29.85,ESE,104,7.6,11.9,91,0.00,,---,0.00,VWS V14.01,2013-06-19 01:34:00,
2013-06-18 21:39:00,65.8,63.1,29.85,ENE,68,3.1,12.8,91,0.00,,---,0.00,VWS V14.01,2013-06-19 01:39:00,
2013-06-18 21:44:00,65.8,63.1,29.85,ENE,77,8.3,13.6,91,0.00,,---,0.00,VWS V14.01,2013-06-19 01:44:00,
2013-06-18 21:49:00,65.8,63.1,29.85,East,87,8.7,8.7,91,0.00,,---,0.00,VWS V14.01,2013-06-19 01:49:00,
2013-06-18 21:54:00,65.8,63.1,29.85,NE,48,5.4,12.3,91,0.00,,---,0.00,VWS V14.01,2013-06-19 01:54:00,
2013-06-18 21:59:00,65.8,63.1,29.85,ENE,76,10.1,10.1,91,0.00,,---,0.00,VWS V14.01,2013-06-19 01:59:00,
2013-06-18 22:04:00,65.8,63.1,29.85,East,79,8.7,8.7,91,0.00,,---,0.00,VWS V14.01,2013-06-19 02:04:00,
2013-06-18 22:09:00,65.8,63.1,29.85,ENE,71,3.1,6.3,91,0.00,,---,0.00,VWS V14.01,2013-06-19 02:09:00,
2013-06-18 22:14:00,65.8,63.1,29.85,ENE,69,10.1,10.1,91,0.00,,---,0.00,VWS V14.01,2013-06-19 02:14:00,
2013-06-18 22:19:00,65.8,63.1,29.85,East,85,5.8,8.3,91,0.00,,---,0.00,VWS V14.01,2013-06-19 02:19:00,
2013-06-18 22:24:00,65.8,63.1,29.85,ENE,73,4.0,7.6,91,0.00,,---,0.00,VWS V14.01,2013-06-19 02:24:00,
2013-06-18 22:29:00,65.8,63.1,29.88,NE,34,5.4,5.4,91,0.00,,---,0.00,VWS V14.01,2013-06-19 02:29:00,
2013-06-18 22:34:00,65.8,63.1,29.88,NE,55,5.8,8.1,91,0.00,,---,0.00,VWS V14.01,2013-06-19 02:34:00,
2013-06-18 22:39:00,65.8,63.1,29.88,NE,48,5.4,8.1,91,0.00,,---,0.00,VWS V14.01,2013-06-19 02:39:00,
2013-06-18 22:44:00,65.8,63.1,29.88,NNE,18,5.8,6.3,91,0.00,,---,0.00,VWS V14.01,2013-06-19 02:44:00,
2013-06-18 22:49:00,65.8,63.1,29.88,NE,41,7.2,7.6,91,0.00,,---,0.00,VWS V14.01,2013-06-19 02:49:00,
2013-06-18 22:54:00,65.8,63.1,29.88,ENE,78,5.8,5.8,91,0.00,,---,0.00,VWS V14.01,2013-06-19 02:54:00,
2013-06-18 22:59:00,65.8,63.1,29.88,NE,40,8.3,8.3,91,0.00,,---,0.00,VWS V14.01,2013-06-19 02:59:00,
2013-06-18 23:04:00,66.0,63.3,29.88,NE,45,6.3,7.6,91,0.00,,---,0.00,VWS V14.01,2013-06-19 03:04:00,
2013-06-18 23:09:00,66.0,63.0,29.88,ENE,76,6.3,7.6,90,0.00,,---,0.00,VWS V14.01,2013-06-19 03:09:00,
2013-06-18 23:14:00,66.0,63.0,29.85,ENE,64,8.1,8.1,90,0.00,,---,0.00,VWS V14.01,2013-06-19 03:14:00,
2013-06-18 23:19:00,66.0,63.0,29.85,ENE,63,4.0,8.3,90,0.00,,---,0.00,VWS V14.01,2013-06-19 03:19:00,
2013-06-18 23:24:00,66.0,63.0,29.85,NE,43,8.3,8.3,90,0.00,,---,0.00,VWS V14.01,2013-06-19 03:24:00,
2013-06-18 23:29:00,66.0,63.0,29.88,NE,36,5.4,8.7,90,0.00,,---,0.00,VWS V14.01,2013-06-19 03:29:00,
2013-06-18 23:34:00,66.0,63.0,29.88,NE,37,5.4,6.3,90,0.00,,---,0.00,VWS V14.01,2013-06-19 03:34:00,
2013-06-18 23:39:00,66.0,63.0,29.88,North,4,5.4,5.4,90,0.00,,---,0.00,VWS V14.01,2013-06-19 03:39:00,
2013-06-18 23:44:00,66.0,63.0,29.88,NE,34,3.1,7.2,90,0.00,,---,0.00,VWS V14.01,2013-06-19 03:44:00,
2013-06-18 23:49:00,66.0,63.0,29.88,North,357,7.6,7.6,90,0.00,,---,0.00,VWS V14.01,2013-06-19 03:49:00,
2013-06-18 23:54:00,65.8,62.8,29.88,North,353,6.3,6.3,90,0.00,,---,0.00,VWS V14.01,2013-06-19 03:54:00,
2013-06-18 23:59:00,65.8,63.1,29.88,NE,35,3.6,6.3,91,0.00,,---,0.00,VWS V14.01,2013-06-19 03:59:00,